• în Republica Moldova
  • Lista ţărilor
  • Pe 7 zile
  • Temperatura apei
  • Hartă satelitară
  • Meteo pe hartă
  • Widget-uri
  • user-avatar
    Intrare

    Meteo pe oră la Kalgoorlie

    Astăzi, 24 Ianuarie, Miercuri

    Timp Temperatura Precipitaţii Vânt Presiune Umiditate
    00:00 +29°C° 0,5 mm 8 m/s 724 mmHg 62%
    01:00 +28°C° 0,5 mm 8 m/s 724 mmHg 66%
    02:00 +26°C° 0,5 mm 8 m/s 724 mmHg 70%
    03:00 +27°C° 0,2 mm 7 m/s 724 mmHg 69%
    04:00 +27°C° 0,2 mm 7 m/s 724 mmHg 69%
    05:00 +27°C° 0,2 mm 6 m/s 723 mmHg 68%
    06:00 +27°C° 0 mm 6 m/s 724 mmHg 66%
    07:00 +27°C° 0 mm 6 m/s 724 mmHg 65%
    08:00 +28°C° 0 mm 5 m/s 724 mmHg 63%
    09:00 +29°C° 0,1 mm 5 m/s 724 mmHg 60%
    10:00 +29°C° 0,1 mm 5 m/s 723 mmHg 57%
    11:00 +30°C° 0,1 mm 5 m/s 723 mmHg 54%
    12:00 +33°C° 0 mm 5 m/s 723 mmHg 49%
    13:00 +34°C° 0 mm 4 m/s 722 mmHg 45%
    14:00 +36°C° 0 mm 4 m/s 721 mmHg 40%
    15:00 +36°C° 0,4 mm 5 m/s 721 mmHg 41%
    16:00 +36°C° 0,4 mm 6 m/s 720 mmHg 41%
    17:00 +36°C° 0,4 mm 7 m/s 720 mmHg 42%
    18:00 +34°C° 1,3 mm 6 m/s 720 mmHg 47%
    19:00 +33°C° 1,3 mm 6 m/s 720 mmHg 53%
    20:00 +30°C° 1,3 mm 5 m/s 720 mmHg 58%
    21:00 +29°C° 1,3 mm 6 m/s 721 mmHg 62%
    22:00 +28°C° 1,3 mm 8 m/s 721 mmHg 65%
    23:00 +27°C° 1,3 mm 9 m/s 721 mmHg 68%

    Mâine, 25 Ianuarie, Joi

    Timp Temperatura Precipitaţii Vânt Presiune Umiditate
    00:00 +27°C° 0,7 mm 9 m/s 721 mmHg 71%
    01:00 +26°C° 0,7 mm 8 m/s 721 mmHg 74%
    02:00 +24°C° 0,7 mm 7 m/s 720 mmHg 77%
    03:00 +24°C° 0,7 mm 6 m/s 721 mmHg 78%
    04:00 +25°C° 0,7 mm 5 m/s 721 mmHg 80%
    05:00 +23°C° 0,7 mm 4 m/s 721 mmHg 82%
    06:00 +25°C° 0,4 mm 5 m/s 721 mmHg 79%
    07:00 +26°C° 0,4 mm 5 m/s 721 mmHg 76%
    08:00 +26°C° 0,4 mm 6 m/s 722 mmHg 73%
    09:00 +28°C° 0,1 mm 6 m/s 722 mmHg 65%
    10:00 +30°C° 0,1 mm 5 m/s 721 mmHg 57%
    11:00 +33°C° 0,1 mm 5 m/s 721 mmHg 49%
    12:00 +34°C° 0 mm 5 m/s 721 mmHg 45%
    13:00 +36°C° 0 mm 4 m/s 720 mmHg 41%
    14:00 +37°C° 0 mm 4 m/s 720 mmHg 37%
    15:00 +37°C° 0 mm 4 m/s 720 mmHg 36%
    16:00 +37°C° 0 mm 4 m/s 720 mmHg 36%
    17:00 +37°C° 0 mm 4 m/s 719 mmHg 35%
    18:00 +36°C° 0 mm 6 m/s 720 mmHg 40%
    19:00 +34°C° 0 mm 7 m/s 721 mmHg 44%
    20:00 +33°C° 0 mm 8 m/s 721 mmHg 48%
    21:00 +32°C° 0,1 mm 9 m/s 722 mmHg 54%
    22:00 +29°C° 0,1 mm 9 m/s 722 mmHg 59%
    23:00 +28°C° 0,1 mm 9 m/s 722 mmHg 65%

    Poimâine, 26 Ianuarie, Vineri

    Timp Temperatura Precipitaţii Vânt Presiune Umiditate
    00:00 +27°C° 0 mm 8 m/s 722 mmHg 67%
    01:00 +26°C° 0 mm 7 m/s 722 mmHg 70%
    02:00 +24°C° 0 mm 7 m/s 722 mmHg 72%
    03:00 +24°C° 0 mm 6 m/s 722 mmHg 74%
    04:00 +23°C° 0 mm 6 m/s 722 mmHg 75%
    05:00 +23°C° 0 mm 5 m/s 722 mmHg 76%
    06:00 +25°C° 0 mm 5 m/s 722 mmHg 71%
    07:00 +26°C° 0 mm 5 m/s 722 mmHg 67%
    08:00 +26°C° 0 mm 5 m/s 723 mmHg 63%
    09:00 +29°C° 0 mm 5 m/s 723 mmHg 55%
    10:00 +32°C° 0 mm 5 m/s 722 mmHg 48%
    11:00 +34°C° 0 mm 4 m/s 722 mmHg 41%
    12:00 +35°C° 0 mm 3 m/s 721 mmHg 38%
    13:00 +36°C° 0 mm 3 m/s 721 mmHg 35%
    14:00 +37°C° 0 mm 2 m/s 720 mmHg 32%
    15:00 +38°C° 0 mm 2 m/s 720 mmHg 31%
    16:00 +39°C° 0 mm 2 m/s 720 mmHg 30%
    17:00 +39°C° 0 mm 2 m/s 719 mmHg 29%
    18:00 +38°C° 0,4 mm 3 m/s 720 mmHg 32%
    19:00 +37°C° 0,4 mm 4 m/s 720 mmHg 34%
    20:00 +36°C° 0,4 mm 4 m/s 720 mmHg 37%
    21:00 +35°C° 0,2 mm 6 m/s 720 mmHg 42%
    22:00 +34°C° 0,2 mm 7 m/s 721 mmHg 47%
    23:00 +32°C° 0,2 mm 9 m/s 721 mmHg 53%

    27 Ianuarie, Sâmbătă

    Timp Temperatura Precipitaţii Vânt Presiune Umiditate
    00:00 +31°C° 0,8 mm 8 m/s 720 mmHg 57%
    01:00 +29°C° 0,8 mm 7 m/s 720 mmHg 62%
    02:00 +28°C° 0,8 mm 7 m/s 719 mmHg 67%
    03:00 +28°C° 0,5 mm 7 m/s 719 mmHg 67%
    04:00 +27°C° 0,5 mm 7 m/s 720 mmHg 68%
    05:00 +27°C° 0,5 mm 7 m/s 720 mmHg 68%
    06:00 +28°C° 0 mm 7 m/s 720 mmHg 63%
    07:00 +30°C° 0 mm 7 m/s 720 mmHg 58%
    08:00 +32°C° 0 mm 7 m/s 720 mmHg 53%
    09:00 +34°C° 0 mm 7 m/s 720 mmHg 46%
    10:00 +38°C° 0 mm 6 m/s 720 mmHg 39%
    11:00 +40°C° 0 mm 6 m/s 720 mmHg 31%
    12:00 +41°C° 0 mm 5 m/s 719 mmHg 27%
    13:00 +43°C° 0 mm 5 m/s 718 mmHg 23%
    14:00 +44°C° 0 mm 4 m/s 718 mmHg 20%
    15:00 +43°C° 0,1 mm 4 m/s 718 mmHg 23%
    16:00 +41°C° 0,1 mm 5 m/s 718 mmHg 26%
    17:00 +40°C° 0,1 mm 5 m/s 718 mmHg 29%
    18:00 +37°C° 0 mm 8 m/s 719 mmHg 41%
    19:00 +32°C° 0 mm 10 m/s 720 mmHg 53%
    20:00 +28°C° 0 mm 13 m/s 720 mmHg 65%
    21:00 +26°C° 0,1 mm 12 m/s 721 mmHg 67%
    22:00 +24°C° 0,1 mm 11 m/s 722 mmHg 68%
    23:00 +23°C° 0,1 mm 11 m/s 723 mmHg 70%

    28 Ianuarie, Duminică

    Timp Temperatura Precipitaţii Vânt Presiune Umiditate
    00:00 +23°C° 0,3 mm 10 m/s 723 mmHg 71%
    01:00 +22°C° 0,3 mm 10 m/s 723 mmHg 72%
    02:00 +21°C° 0,3 mm 10 m/s 723 mmHg 74%
    03:00 +21°C° 0,2 mm 10 m/s 724 mmHg 74%
    04:00 +21°C° 0,2 mm 10 m/s 724 mmHg 75%
    05:00 +19°C° 0,2 mm 10 m/s 724 mmHg 76%
    06:00 +19°C° 0 mm 10 m/s 725 mmHg 75%
    07:00 +21°C° 0 mm 9 m/s 725 mmHg 74%
    08:00 +21°C° 0 mm 9 m/s 726 mmHg 74%
    09:00 +21°C° 0,1 mm 9 m/s 726 mmHg 73%
    10:00 +21°C° 0,1 mm 9 m/s 726 mmHg 71%
    11:00 +22°C° 0,1 mm 9 m/s 726 mmHg 70%
    12:00 +22°C° 0 mm 9 m/s 726 mmHg 68%
    13:00 +22°C° 0 mm 9 m/s 726 mmHg 67%
    14:00 +22°C° 0 mm 9 m/s 725 mmHg 65%
    15:00 +22°C° 0,1 mm 9 m/s 726 mmHg 65%
    16:00 +22°C° 0,1 mm 9 m/s 726 mmHg 65%
    17:00 +22°C° 0,1 mm 10 m/s 726 mmHg 64%
    18:00 +21°C° 0,1 mm 10 m/s 727 mmHg 66%
    19:00 +21°C° 0,1 mm 10 m/s 727 mmHg 68%
    20:00 +19°C° 0,1 mm 10 m/s 727 mmHg 69%
    21:00 +18°C° 0 mm 10 m/s 728 mmHg 70%
    22:00 +17°C° 0 mm 10 m/s 728 mmHg 71%
    23:00 +17°C° 0 mm 9 m/s 728 mmHg 72%

    29 Ianuarie, Luni

    Timp Temperatura Precipitaţii Vânt Presiune Umiditate
    00:00 +16°C° 0 mm 9 m/s 728 mmHg 72%
    01:00 +16°C° 0 mm 9 m/s 728 mmHg 73%
    02:00 +16°C° 0 mm 9 m/s 728 mmHg 73%
    03:00 +15°C° 0 mm 9 m/s 729 mmHg 73%
    04:00 +14°C° 0 mm 10 m/s 729 mmHg 72%
    05:00 +14°C° 0 mm 10 m/s 729 mmHg 72%
    06:00 +14°C° 0,1 mm 10 m/s 729 mmHg 71%
    07:00 +14°C° 0,1 mm 10 m/s 730 mmHg 70%
    08:00 +14°C° 0,1 mm 10 m/s 730 mmHg 69%
    09:00 +16°C° 0,2 mm 10 m/s 730 mmHg 66%
    10:00 +17°C° 0,2 mm 10 m/s 730 mmHg 64%
    11:00 +18°C° 0,2 mm 10 m/s 730 mmHg 61%
    12:00 +18°C° 0,3 mm 10 m/s 729 mmHg 61%
    13:00 +19°C° 0,3 mm 10 m/s 729 mmHg 61%
    14:00 +19°C° 0,3 mm 10 m/s 728 mmHg 61%
    15:00 +19°C° 0,2 mm 10 m/s 728 mmHg 61%
    16:00 +19°C° 0,2 mm 10 m/s 729 mmHg 62%
    17:00 +19°C° 0,2 mm 10 m/s 729 mmHg 62%
    18:00 +18°C° 0,1 mm 10 m/s 729 mmHg 65%
    19:00 +17°C° 0,1 mm 10 m/s 729 mmHg 68%
    20:00 +16°C° 0,1 mm 10 m/s 730 mmHg 71%
    21:00 +16°C° 0 mm 10 m/s 730 mmHg 71%
    22:00 +16°C° 0 mm 10 m/s 730 mmHg 72%
    23:00 +16°C° 0 mm 9 m/s 730 mmHg 73%
    Arată mai mult